Location: Peebles
(55.6412°N, 3.1714°W)
Time: 00:57:08
(UTC+01:00)

deb Agena D - Pass Details

Date: 16 September 2024
Orbit: 793 x 976 km, 99.8° (Epoch: 11 October)

Event Time Altitude Azimuth Distance (km) Brightness Sun altitude
Rises 05:47:31 0° 14° (NNE) 3,396 9.8 -9.1°
Reaches altitude 10° 05:50:29 10° 358° (N) 2,488 8.9 -8.7°
Maximum altitude 05:54:12 19° 315° (NW) 1,959 7.9 -8.2°
Drops below altitude 10° 05:58:01 10° 272° (W) 2,562 8.1 -7.6°
Enters shadow 05:58:35 - 268° (W) 2,717 8.2 -7.6°
